Weather History for Pueblo, CO

Change the Weather History Date:

Monday, November 19, 2012

  Actual Average Record
Temperature  
Mean Temperature 47 °F 38 °F  
Max Temperature 65 °F 54 °F 82 °F (2007)
Min Temperature 28 °F 21 °F -1 °F (1928)
Degree Days  
Heating Degree Days 18 27  
Month to date heating degree days 388 440  
Since 1 July heating degree days 878 950  
Cooling Degree Days 0 0  
Month to date cooling degree days 0 0  
Year to date cooling degree days 1322 897  
Moisture  
Dew Point 16 °F    
Average Humidity 35    
Maximum Humidity 53    
Minimum Humidity 16    
Precipitation  
Precipitation 0.00 in 0.01 in 0.39 in (1979)
Month to date precipitation T 0.30  
Year to date precipitation 4.70 12.02  
Snow  
Snow 0.00 in 0.20 in 6.00 in (1985)
Month to date snowfall T 2.5  
Since 1 July snowfall 1.6 4.1  
Since 1 September snowfall 1.6 4.1  
Snow Depth 0.00 in    
Sea Level Pressure  
Sea Level Pressure 30.17 in    
Wind  
Wind Speed 6 mph (North)    
Max Wind Speed 16 mph    
Max Gust Speed 20 mph    
Visibility 10 miles    
Events      
T = Trace of Precipitation, MM = Missing Value Source: NWS Daily Summary

Daily Weather History Graph

Daily Weather History Graph

Search for Another Location

Airport:

Trip Planner

Search our weather history database for the weather conditions in past years. The results will help you decide how hot, cold, wet, or windy it might be!

Date:

Astronomy

Nov. 19, 2012 Rise Set
Actual Time 6:44 AM MST 4:42 PM MST
Civil Twilight 6:15 AM MST 5:11 PM MST
Nautical Twilight 5:43 AM MST 5:43 PM MST
Astronomical Twilight 5:12 AM MST 6:14 PM MST
Moon 11:50 AM MST (11/19) 11:09 PM MST (11/19)
Length of Visible Light 10h 55m
Length of Day
9h 58m
Waxing Crescent, 41% of the Moon is Illuminated
Nov 19
Waxing Crescent
Nov 20
First Quarter
Nov 28
Full
Dec 6
Last Quarter
Dec 13
New

Hourly Weather History & Observations

Time (MST) Temp. Windchill Dew Point Humidity Pressure Visibility Wind Dir Wind Speed Gust Speed Precip Events Conditions
12:53 AM 34.0 °F 27.2 °F 14.0 °F 44% 30.04 in 10.0 mi West 8.1 mph - N/A   Clear
1:53 AM 32.0 °F 24.8 °F 14.0 °F 48% 30.07 in 10.0 mi WNW 8.1 mph - N/A   Clear
2:53 AM 32.0 °F 27.5 °F 15.1 °F 50% 30.09 in 10.0 mi SW 4.6 mph - N/A   Clear
3:53 AM 28.9 °F 23.9 °F 14.0 °F 54% 30.11 in 10.0 mi SSW 4.6 mph - N/A   Clear
4:53 AM 30.0 °F 24.1 °F 15.1 °F 54% 30.15 in 10.0 mi East 5.8 mph - N/A   Clear
5:53 AM 41.0 °F 34.7 °F 18.0 °F 40% 30.16 in 10.0 mi WNW 10.4 mph - N/A   Clear
6:53 AM 34.0 °F 25.0 °F 15.1 °F 46% 30.20 in 10.0 mi NW 12.7 mph - N/A   Clear
7:53 AM 41.0 °F 39.0 °F 18.0 °F 40% 30.22 in 9.0 mi NE 3.5 mph - N/A   Clear
8:53 AM 46.0 °F 41.9 °F 18.0 °F 33% 30.21 in 10.0 mi NW 8.1 mph - N/A   Clear
9:53 AM 57.0 °F - 19.0 °F 23% 30.20 in 10.0 mi WNW 15.0 mph - N/A   Clear
10:53 AM 61.0 °F - 18.0 °F 19% 30.18 in 10.0 mi Variable 5.8 mph - N/A   Clear
11:53 AM 62.1 °F - 16.0 °F 17% 30.17 in 10.0 mi NE 9.2 mph - N/A   Clear
12:53 PM 63.0 °F - 16.0 °F 16% 30.14 in 10.0 mi ESE 5.8 mph - N/A   Clear
1:53 PM 63.0 °F - 15.1 °F 16% 30.14 in 10.0 mi East 4.6 mph - N/A   Clear
2:53 PM 61.0 °F - 15.1 °F 17% 30.15 in 10.0 mi ESE 4.6 mph - N/A   Clear
3:53 PM 59.0 °F - 16.0 °F 19% 30.17 in 10.0 mi ESE 8.1 mph - N/A   Clear
4:53 PM 51.1 °F - 14.0 °F 23% 30.21 in 10.0 mi East 4.6 mph - N/A   Clear
5:53 PM 46.9 °F - 15.1 °F 28% 30.21 in 10.0 mi ENE 4.6 mph - N/A   Clear
6:53 PM 42.1 °F - 16.0 °F 35% 30.23 in 10.0 mi Calm Calm - N/A   Clear
7:53 PM 36.0 °F 30.3 °F 12.9 °F 39% 30.24 in 10.0 mi NNW 6.9 mph - N/A   Clear
8:53 PM 35.1 °F - 14.0 °F 42% 30.22 in 10.0 mi Calm Calm - N/A   Clear
9:53 PM 36.0 °F 32.1 °F 15.1 °F 43% 30.19 in 10.0 mi SW 4.6 mph - N/A   Clear
10:53 PM 33.1 °F 25.5 °F 15.1 °F 48% 30.19 in 10.0 mi NNW 9.2 mph - N/A   Clear
11:53 PM 30.9 °F - 14.0 °F 50% 30.20 in 10.0 mi Calm Calm - N/A   Clear